Cheyenne, WY

12:17 PM MDT on May 25, 2017 (GMT -0600)
Cheyenne

Weather History for KCYS - September, 2013

Change the Weather History Date:

Saturday, September 7, 2013

  Actual Average Record
Temperature  
Mean Temperature 73 °F 62 °F  
Max Temperature 87 °F 76 °F 90 °F (1959)
Min Temperature 59 °F 48 °F 30 °F (1898)
Degree Days  
Heating Degree Days 0 4  
Month to date heating degree days 0 24  
Since 1 July heating degree days 15 80  
Cooling Degree Days 8 1  
Month to date cooling degree days 58 12  
Year to date cooling degree days 511 338  
Growing Degree Days 24 (Base 50)    
Moisture  
Dew Point 50 °F    
Average Humidity 53    
Maximum Humidity 80    
Minimum Humidity 25    
Precipitation  
Precipitation T in 0.06 in 0.82 in (1971)
Month to date precipitation 0.41 0.37  
Year to date precipitation 8.84 12.82  
Snow  
Snow 0.00 in 0.00 in - ()
Month to date snowfall 0.0 0.1  
Since 1 July snowfall 0.0 0.1  
Snow Depth 0.00 in    
Sea Level Pressure  
Sea Level Pressure 29.94 in    
Wind  
Wind Speed 6 mph (WNW)    
Max Wind Speed 17 mph    
Max Gust Speed 22 mph    
Visibility 10 miles    
Events Rain    
T = Trace of Precipitation, MM = Missing Value Source: NWS Daily Summary

Daily Weather History Graph

Daily Weather History Graph

Search for Another Location

Airport or City:

Trip Planner

Search our weather history database for the weather conditions in past years. The results will help you decide how hot, cold, wet, or windy it might be!

Date:

Astronomy

Sep. 07, 2013 Rise Set
Actual Time 6:32 AM MDT 7:21 PM MDT
Civil Twilight 6:04 AM MDT 7:49 PM MDT
Nautical Twilight 5:30 AM MDT 8:22 PM MDT
Astronomical Twilight 4:56 AM MDT 8:56 PM MDT
Moon 8:50 AM MDT (9/7) 8:19 PM MDT (9/7)
Length of Visible Light 13h 45m
Length of Day
12h 49m
Waxing Crescent, 5% of the Moon is Illuminated
Sep 7
Waxing Crescent
Sep 12
First Quarter
Sep 19
Full
Sep 26
Last Quarter
Oct 4
New

Hourly Weather History & Observations

Time (MDT) Temp. Dew Point Humidity Pressure Visibility Wind Dir Wind Speed Gust Speed Precip Events Conditions
12:53 AM 64.0 °F 51.1 °F 63% 29.95 in 10.0 mi West 6.9 mph - N/A   Clear
1:53 AM 60.1 °F 53.1 °F 78% 29.94 in 10.0 mi West 8.1 mph - N/A   Clear
2:53 AM 59.0 °F 54.0 °F 83% 29.93 in 10.0 mi SW 6.9 mph - N/A   Clear
3:53 AM 61.0 °F 52.0 °F 72% 29.98 in 10.0 mi West 6.9 mph - N/A   Clear
4:53 AM 60.1 °F 52.0 °F 75% 30.00 in 10.0 mi West 8.1 mph - N/A   Clear
5:53 AM 60.1 °F 51.1 °F 72% 29.99 in 10.0 mi West 6.9 mph - N/A   Clear
6:53 AM 63.0 °F 50.0 °F 63% 29.99 in 10.0 mi WNW 4.6 mph - N/A   Clear
7:53 AM 66.9 °F 50.0 °F 54% 29.99 in 10.0 mi West 6.9 mph - N/A   Clear
8:53 AM 73.9 °F 53.1 °F 48% 29.98 in 10.0 mi Calm Calm - N/A   Clear
9:53 AM 80.1 °F 50.0 °F 35% 29.97 in 10.0 mi Calm Calm - N/A   Clear
10:53 AM 82.0 °F 48.0 °F 30% 29.98 in 10.0 mi ENE 5.8 mph - N/A   Clear
11:53 AM 82.0 °F 51.1 °F 34% 29.97 in 10.0 mi NNE 6.9 mph - N/A   Clear
12:53 PM 84.0 °F 48.0 °F 28% 29.96 in 10.0 mi ENE 3.5 mph - N/A   Clear
1:53 PM 84.9 °F 48.0 °F 28% 29.94 in 10.0 mi Variable 3.5 mph - N/A   Clear
2:53 PM 86.0 °F 46.0 °F 25% 29.93 in 10.0 mi Calm Calm - N/A   Clear
3:53 PM 86.0 °F 46.9 °F 26% 29.89 in 10.0 mi Calm Calm - N/A   Clear
4:53 PM 84.0 °F 46.0 °F 26% 29.90 in 10.0 mi Calm Calm - N/A   Clear
5:53 PM 80.1 °F 52.0 °F 38% 29.91 in 10.0 mi WNW 9.2 mph - 0.00 in Rain Light Rain
6:53 PM 78.1 °F 53.1 °F 42% 29.90 in 10.0 mi WNW 4.6 mph - 0.00 in   Clear
7:53 PM 73.9 °F 46.9 °F 38% 29.90 in 10.0 mi NW 9.2 mph - N/A   Clear
8:53 PM 70.0 °F 46.9 °F 44% 29.90 in 10.0 mi WNW 10.4 mph - N/A   Clear
9:53 PM 66.9 °F 48.0 °F 51% 29.88 in 10.0 mi WNW 6.9 mph - N/A   Clear
10:53 PM 68.0 °F 46.9 °F 47% 29.88 in 10.0 mi WNW 12.7 mph - N/A   Clear
11:53 PM 66.9 °F 48.0 °F 51% 29.87 in 10.0 mi WNW 10.4 mph - N/A   Clear